Location: Bayshore Village Mobile Home Park
(26.6945°N, 81.8642°W)
Time: 16:08:05
(UTC+00:00)

ARIANE 5 R/B - Pass Details

Date: 17 June 2021
Orbit: 748 x 795 km, 98.7° (Epoch: 26 July)

Event Time Altitude Azimuth Distance (km) Brightness Sun altitude
Rises 08:05:36 0° 20° (NNE) 3,194 6.8 -27.1°
Reaches altitude 10° 08:07:58 10° 26° (NNE) 2,268 5.9 -26.8°
Maximum altitude 08:12:47 48° 101° (E) 971 3.1 -26.1°
Enters shadow 08:13:53 41° 139° (SE) 1,082 3.1 -25.9°
